[[{"header":{"parameterUnit":"m.s-1","parameterCategory":1,"la1":30.2992,"la2":30.254,"lo1":-89.0895,"lo2":-89.0443,"dy":0.0025,"dx":0.0025,"nx":19,"ny":19,"refTime":"2026-04-14T21:00:00:Z","depth":0,"parameterNumber":2,"parameterNumberName":"U-component_of_WINDS"},"data":[0,0,0,-2.4671,-2.4672,-2.4753,-2.4753,-2.4861,-2.4862,0,0,0,0,0,0,0,0,0,0,0,-2.4649,-2.465,-2.4671,-2.4673,-2.4753,-2.4753,-2.4861,-2.4862,0,0,0,0,0,0,0,0,0,0,0,-2.4649,-2.465,-2.4651,-2.4673,-2.4753,-2.4753,-2.4861,-2.4798,0,0,0,0,0,0,0,0,0,0,-2.472,-2.4702,-2.465,-2.4651,-2.4673,-2.4752,-2.4753,-2.4795,-2.4802,-2.4827,0,-2.4848,0,-2.4857,-2.487,-2.487,0,0,0,-2.4671,-2.4696,-2.4716,-2.4651,-2.4674,-2.4752,-2.4716,-2.4799,-2.4807,-2.4836,-2.485,-2.4854,-2.4859,-2.487,-2.4871,-2.5015,-2.5016,0,0,-2.4667,-2.4665,-2.471,-2.4721,-2.4707,-2.4714,-2.4719,-2.4804,-2.4819,-2.485,-2.4856,-2.486,-2.4871,-2.4872,-2.5015,-2.5015,0,0,0,-2.4655,-2.4662,-2.4679,-2.4716,-2.473,-2.4716,-2.4722,-2.4815,-2.4821,-2.4857,-2.4862,-2.4872,-2.4873,-2.5014,-2.5015,-2.5049,0,0,0,-2.4652,-2.4655,-2.4677,-2.4677,-2.4729,-2.4773,-2.4731,-2.4815,-2.4825,-2.4861,-2.4872,-2.4874,-2.5013,-2.5014,-2.5046,-2.5065,0,0,0,-2.4643,-2.4654,-2.4666,-2.4677,-2.4711,-2.4772,-2.4783,-2.4817,-2.4828,-2.487,-2.4875,-2.5012,-2.5014,-2.5044,-2.5061,-2.5102,0,0,0,-2.4633,-2.4695,-2.4667,-2.4738,-2.471,-2.4793,-2.4782,-2.4844,-2.4884,-2.4872,-2.5013,-2.5015,-2.5043,-2.5059,-2.51,-2.5136,-2.5151,0,0,-2.471,-2.4704,-2.4747,-2.4724,-2.481,-2.478,-2.4873,-2.4912,-2.4918,-2.4983,-2.4987,-2.5047,-2.5061,-2.5102,-2.5238,-2.525,0,0,0,-2.4771,-2.4801,-2.4824,-2.4863,-2.4894,-2.4923,-2.4949,-2.4964,-2.5019,-2.4951,-2.5074,-2.5082,-2.5106,-2.5124,-2.5134,-2.5155,-2.5023,-2.5023,-2.5023,-2.4876,-2.4881,-2.4952,-2.4967,-2.5005,-2.5031,-2.5062,-2.5087,-2.5081,-2.511,-2.5129,-2.5211,-2.5231,-2.5239,-2.5261,-2.5149,-2.515,-2.515,-2.515,-2.499,-2.5033,-2.5025,-2.509,-2.5096,-2.5151,-2.518,-2.5175,-2.5228,-2.5197,-2.5218,-2.5183,-2.5252,-2.5271,-2.5152,-2.5152,-2.5152,-2.5151,-2.5151,-2.5059,-2.508,-2.5098,-2.5155,-2.5198,-2.5212,-2.5264,-2.5268,-2.5272,-2.5293,-2.5314,-2.5313,-2.5313,-2.5303,-2.5303,-2.5303,-2.5304,-2.5304,-2.5304,-2.5123,-2.5141,-2.5184,-2.5224,-2.525,-2.5284,-2.5313,-2.5339,-2.5369,-2.5368,-2.5368,-2.536,-2.5258,-2.5231,-2.5308,-2.5308,-2.5307,-2.5307,-2.5306,-2.5235,-2.521,-2.5276,-2.5302,-2.535,-2.5394,-2.5398,-2.5451,-2.5474,-2.55,-2.5488,-2.5412,-2.5406,-2.5398,-2.5376,-2.5486,-2.5486,-2.5486,-2.5486,-2.5292,-2.529,-2.5358,-2.54,-2.5441,-2.5452,-2.5528,-2.5552,-2.5574,-2.5588,-2.5574,-2.5546,-2.5537,-2.5537,-2.5526,-2.5505,-2.5646,-2.5646,-2.5646,-2.5361,-2.5363,-2.5426,-2.5446,-2.5484,-2.5518,-2.5589,-2.5639,-2.5658,-2.5652,-2.56,-2.5593,-2.5548,-2.5533,-2.5524,-2.5507,-2.547,0,0]},{"header":{"parameterUnit":"m.s-1","parameterCategory":1,"la1":30.2992,"la2":30.254,"lo1":-89.0895,"lo2":-89.0443,"dy":0.0025,"dx":0.0025,"nx":19,"ny":19,"refTime":"2026-04-14T21:00:00:Z","depth":0,"parameterNumber":3,"parameterNumberName":"V-component_of_WINDS"},"data":[0,0,0,4.0264,4.0264,4.0247,4.0247,4.0233,4.0233,0,0,0,0,0,0,0,0,0,0,0,4.0274,4.0274,4.0264,4.0264,4.0247,4.0247,4.0233,4.0233,0,0,0,0,0,0,0,0,0,0,0,4.0274,4.0274,4.0274,4.0264,4.0247,4.0247,4.0233,4.0243,0,0,0,0,0,0,0,0,0,0,4.0258,4.0271,4.0274,4.0274,4.0264,4.0247,4.0247,4.0243,4.0242,4.0244,0,4.0247,0,4.024,4.0232,4.0232,0,0,0,4.026,4.0272,4.0264,4.0274,4.0264,4.0247,4.0254,4.0242,4.0241,4.0242,4.0246,4.0246,4.024,4.0232,4.0232,4.0255,4.0256,0,0,4.0261,4.0273,4.0264,4.0263,4.0267,4.0254,4.0253,4.0242,4.0247,4.0246,4.0245,4.0239,4.0232,4.0232,4.0255,4.0255,0,0,0,4.0266,4.0274,4.0265,4.0264,4.0261,4.0254,4.0253,4.0247,4.0243,4.0245,4.0239,4.0232,4.0232,4.0255,4.0255,4.0281,0,0,0,4.0266,4.0277,4.0266,4.0273,4.0261,4.0254,4.0259,4.0244,4.0243,4.0239,4.0232,4.0232,4.0254,4.0255,4.028,4.0291,0,0,0,4.0273,4.0278,4.0277,4.0274,4.0267,4.0254,4.0249,4.0244,4.0239,4.0232,4.0232,4.0254,4.0255,4.0278,4.0289,4.03,0,0,0,4.0284,4.03,4.0278,4.0294,4.0268,4.0271,4.0249,4.025,4.0248,4.0232,4.0254,4.0255,4.0278,4.0287,4.0299,4.0311,4.0317,0,0,4.0311,4.0304,4.0312,4.0292,4.0302,4.0272,4.0285,4.0271,4.0259,4.0257,4.0257,4.028,4.0288,4.0299,4.0352,4.0357,0,0,0,4.0325,4.0331,4.0331,4.033,4.032,4.0312,4.0295,4.029,4.0288,4.0261,4.0287,4.0292,4.0298,4.0303,4.0308,4.0311,4.0258,4.0258,4.0258,4.038,4.0365,4.0378,4.036,4.036,4.0342,4.0339,4.0329,4.0313,4.032,4.0319,4.0353,4.0359,4.0362,4.0367,4.0325,4.0325,4.0325,4.0325,4.0418,4.0424,4.0404,4.0409,4.0392,4.0396,4.038,4.0369,4.037,4.0352,4.0356,4.0337,4.0369,4.0372,4.0327,4.0327,4.0327,4.0326,4.0326,4.0451,4.0451,4.0446,4.0442,4.0442,4.0424,4.0426,4.0411,4.0396,4.0401,4.0398,4.0397,4.0394,4.0401,4.0401,4.0401,4.0401,4.0401,4.0401,4.0487,4.048,4.0484,4.0476,4.0473,4.0468,4.0451,4.0448,4.044,4.0429,4.0429,4.0412,4.0375,4.0366,4.0403,4.0403,4.0403,4.0402,4.0402,4.0528,4.0517,4.0523,4.052,4.051,4.051,4.0492,4.0487,4.0482,4.0483,4.0466,4.0442,4.0433,4.0429,4.0421,4.047,4.047,4.047,4.047,4.0555,4.055,4.0553,4.055,4.0545,4.053,4.0536,4.0524,4.0509,4.0505,4.0496,4.0485,4.0482,4.0474,4.047,4.0461,4.052,4.052,4.052,4.0579,4.0573,4.0582,4.0568,4.0559,4.0552,4.0557,4.0554,4.0535,4.0522,4.0501,4.0499,4.048,4.0475,4.046,4.0453,4.0438,0,0]}]]